FW3072 Weather Reports


time (UTC)temp
C
wind
direction
speed
KPH
gust
KPH
rain 1hr
cm
rain 24hr
cm
rain mn
cm
humidity
%
barometer
mb
20260901202202 27 359 0.0 3.2 0.00 0.15 0.10 83 1013.2
20260901201202 27 360 0.0 3.2 0.00 0.15 0.10 83 1013.3
20260901200224 27 359 0.0 3.2 0.00 0.15 0.10 83 1013.4
20260901195202 27 359 0.0 3.2 0.00 0.15 0.10 83 1013.3
20260901194204 27 360 0.0 6.4 0.00 0.18 0.10 82 1013.3
20260901193203 27 360 0.0 3.2 0.00 0.18 0.10 83 1013.2
20260901192202 28 360 0.0 8.0 0.00 0.18 0.10 82 1013.2
20260901191203 28 359 0.0 8.0 0.00 0.18 0.10 82 1013.3
20260901190202 27 358 3.2 6.4 0.00 0.18 0.10 83 1013.4
20260901185203 27 360 0.0 0.0 0.00 0.18 0.10 83 1013.4
20260901184202 27 360 0.0 0.0 0.00 0.18 0.10 83 1013.5
20260901183203 27 360 0.0 8.0 0.00 0.23 0.10 83 1013.5
20260901182202 27 360 0.0 12.9 0.00 0.23 0.10 84 1013.5
20260901181247 27 359 1.6 4.8 0.00 0.23 0.10 85 1013.4
20260901180203 27 359 1.6 6.4 0.00 0.23 0.10 85 1013.3
20260901175223 27 359 0.0 9.7 0.00 0.23 0.10 85 1013.2
20260901174204 27 360 0.0 4.8 0.00 0.25 0.10 84 1013.1
20260901173223 27 359 1.6 12.9 0.00 0.25 0.10 83 1013.0
20260901172224 27 359 3.2 8.0 0.00 0.25 0.10 83 1012.8
20260901171203 27 359 1.6 6.4 0.00 0.28 0.10 83 1012.9
20260901170202 27 359 3.2 14.5 0.00 0.28 0.10 83 1012.8
20260901165225 27 359 0.0 9.7 0.00 0.28 0.10 81 1012.8
20260901164202 28 359 3.2 9.7 0.00 0.28 0.10 81 1013.0
20260901163202 28 359 8.0 12.9 0.00 0.28 0.10 83 1012.9
20260901162203 27 359 6.4 14.5 0.00 0.28 0.10 84 1012.8
20260901161223 27 358 4.8 9.7 0.00 0.28 0.10 85 1012.9
20260901160202 26 359 4.8 9.7 0.00 0.28 0.10 87 1012.9
20260901155203 26 355 4.8 8.0 0.00 0.28 0.10 88 1012.9
20260901154203 26 359 4.8 12.9 0.00 0.28 0.10 88 1012.9
20260901153223 26 359 8.0 14.5 0.00 0.28 0.10 90 1012.9
20260901152204 25 359 6.4 12.9 0.00 0.28 0.10 92 1013.0
20260901151202 25 359 1.6 8.0 0.00 0.28 0.10 93 1012.8
20260901150203 24 359 3.2 12.9 0.00 0.28 0.10 94 1012.8
20260901145202 24 359 0.0 8.0 0.00 0.28 0.10 95 1012.8
20260901144203 23 359 1.6 8.0 0.00 0.28 0.10 95 1012.7
20260901143203 23 359 4.8 8.0 0.00 0.28 0.10 95 1012.7
20260901142223 23 359 0.0 12.9 0.00 0.30 0.10 96 1012.9
20260901141202 23 359 1.6 8.0 0.00 0.30 0.10 96 1013.0
20260901140206 23 359 1.6 9.7 0.00 0.33 0.10 96 1013.0
20260901135202 23 359 0.0 8.0 0.00 0.36 0.10 96 1013.0
20260901134203 23 359 3.2 8.0 0.00 0.46 0.10 96 1013.0
20260901133203 22 359 3.2 9.7 0.00 0.51 0.10 96 1013.0
20260901132202 22 359 3.2 8.0 0.00 0.56 0.10 96 1013.1
20260901131204 22 359 4.8 8.0 0.00 0.61 0.10 96 1013.2
20260901130203 22 360 0.0 8.0 0.00 0.66 0.10 96 1013.3
20260901125224 22 359 1.6 9.7 0.00 0.71 0.10 96 1013.3
20260901124202 22 359 3.2 12.9 0.00 0.74 0.10 96 1013.3
20260901123204 22 359 3.2 8.0 0.00 0.86 0.10 96 1013.3
20260901122202 22 359 0.0 8.0 0.00 0.97 0.10 96 1013.2
20260901121204 22 359 0.0 6.4 0.00 1.12 0.10 96 1013.0
20260901120203 21 359 0.0 8.0 0.00 1.19 0.10 96 1012.9
20260901115202 21 360 0.0 6.4 0.00 1.19 0.10 96 1012.9
20260901114203 21 360 0.0 4.8 0.00 1.19 0.10 96 1012.9
20260901113202 21 359 0.0 6.4 0.00 1.19 0.10 96 1012.8
20260901112203 21 359 0.0 1.6 0.00 1.22 0.10 96 1012.8
20260901111203 21 360 0.0 0.0 0.00 1.22 0.10 96 1012.7
20260901110225 21 360 0.0 3.2 0.00 1.22 0.10 96 1012.7
20260901105203 21 359 0.0 3.2 0.00 1.24 0.10 96 1012.6
20260901104202 21 360 0.0 1.6 0.00 1.27 0.10 96 1012.6
20260901103203 21 359 0.0 4.8 0.00 1.27 0.10 96 1012.5
20260901102202 21 360 0.0 1.6 0.00 1.30 0.10 96 1012.4
20260901101202 21 360 0.0 0.0 0.00 1.30 0.10 96 1012.2
20260901100203 21 360 0.0 0.0 0.00 1.32 0.10 96 1012.1
20260901095202 21 360 0.0 0.0 0.00 1.32 0.10 96 1012.0
20260901094202 21 360 0.0 0.0 0.00 1.32 0.10 96 1012.1
20260901093202 21 360 0.0 0.0 0.00 1.32 0.10 96 1012.1
20260901092202 21 360 0.0 0.0 0.00 1.32 0.10 96 1012.1
20260901091203 21 360 0.0 0.0 0.00 1.32 0.10 96 1012.0
20260901090203 21 360 0.0 0.0 0.00 1.32 0.10 96 1012.1
20260901085203 20 360 0.0 0.0 0.05 1.32 0.10 96 1012.1
20260901084204 20 360 0.0 0.0 0.05 1.32 0.10 96 1011.9
20260901083205 20 360 0.0 0.0 0.05 1.32 0.10 96 1011.9
20260901082224 21 360 0.0 0.0 0.03 1.30 0.08 96 1012.0
20260901081223 21 360 0.0 0.0 0.03 1.30 0.08 96 1012.0
20260901080203 20 360 0.0 0.0 0.00 1.27 0.05 96 1012.2
20260901075202 20 360 0.0 0.0 0.05 1.27 0.05 96 1012.1
20260901074203 20 360 0.0 0.0 0.05 1.27 0.05 96 1012.2
20260901073224 20 360 0.0 0.0 0.00 1.24 0.00 96 1012.3
20260901072202 20 360 0.0 0.0 0.00 1.24 0.00 96 1012.4
20260901071203 20 360 0.0 0.0 0.00 1.24 0.00 96 1012.7
20260901070202 20 360 0.0 0.0 0.00 1.24 0.00 96 1012.6
20260901065203 20 360 0.0 0.0 0.00 1.27 0.00 96 1012.8
20260901064225 20 360 0.0 0.0 0.00 1.32 0.00 96 1012.9
20260901063203 20 360 0.0 0.0 0.00 1.37 0.00 96 1013.0
20260901062202 20 360 0.0 0.0 0.00 1.37 0.00 96 1013.2
20260901061203 20 360 0.0 0.0 0.00 1.40 0.00 96 1013.4
20260901060203 20 360 0.0 0.0 0.00 1.42 0.00 96 1013.5
20260901055203 20 360 0.0 0.0 0.00 1.45 0.00 96 1013.6
20260901054203 20 360 0.0 0.0 0.00 1.45 0.00 96 1013.7
20260901053202 20 360 0.0 0.0 0.00 1.45 0.00 96 1013.7
20260901052225 20 360 0.0 0.0 0.00 1.45 0.00 95 1013.8
20260901051202 20 360 0.0 0.0 0.00 1.45 0.00 95 1013.9
20260901050204 20 360 0.0 0.0 0.00 1.45 0.00 95 1014.0
20260901045202 20 360 0.0 0.0 0.00 1.45 0.00 95 1013.9
20260901043203 21 360 0.0 0.0 0.00 1.45 0.00 95 1014.5
20260901042202 20 360 0.0 0.0 0.00 1.47 0.00 95 1014.5
20260901041223 20 360 0.0 0.0 0.00 1.50 0.00 95 1014.6
20260901040202 20 360 0.0 0.0 0.00 1.50 0.00 95 1014.6
20260901035204 20 360 0.0 0.0 0.00 1.50 1.50 95 1014.6
20260901034202 20 360 0.0 0.0 0.00 1.50 1.50 95 1014.6
20260901033203 20 360 0.0 0.0 0.00 1.50 1.50 95 1014.7
20260901032223 20 360 0.0 0.0 0.00 1.50 1.50 95 1014.9
20260901031227 21 360 0.0 0.0 0.00 1.50 1.50 95 1014.7
20260901030202 21 360 0.0 0.0 0.00 1.50 1.50 95 1014.9
20260901025226 21 360 0.0 0.0 0.00 1.50 1.50 95 1015.1
20260901024205 21 360 0.0 0.0 0.00 1.50 1.50 95 1015.1
20260901023202 21 360 0.0 0.0 0.00 1.50 1.50 95 1015.1
20260901022223 21 360 0.0 0.0 0.00 1.50 1.50 95 1015.4
20260901021225 21 360 0.0 0.0 0.00 1.50 1.50 95 1015.5
20260901020223 21 360 0.0 0.0 0.00 1.50 1.50 95 1015.4
20260901015203 21 360 0.0 0.0 0.00 1.50 1.50 95 1015.4
20260901014204 21 360 0.0 0.0 0.00 1.50 1.50 95 1015.5
20260901013202 21 360 0.0 0.0 0.00 1.50 1.50 95 1015.5
20260901012224 21 360 0.0 0.0 0.00 1.50 1.50 95 1015.6
20260901011202 21 360 0.0 0.0 0.00 1.50 1.50 95 1015.7
20260901010203 21 360 0.0 0.0 0.00 1.50 1.50 95 1015.7
20260901005202 21 360 0.0 0.0 0.05 1.50 1.50 95 1015.4
20260901004203 21 360 0.0 1.6 0.05 1.50 1.50 95 1015.3
20260901003203 21 360 0.0 3.2 0.00 1.45 1.45 95 1015.3
20260901002202 22 360 0.0 0.0 0.00 1.45 1.45 95 1015.2
20260901001203 22 360 0.0 1.6 0.00 1.45 1.45 95 1015.2
20260901000203 22 360 0.0 3.2 0.00 1.45 1.45 95 1015.2
20260831234202 22 360 0.0 0.0 0.00 1.45 1.45 95 1015.2
20260831233203 22 360 0.0 0.0 0.00 1.45 1.45 95 1015.2
20260831232203 22 360 0.0 0.0 0.00 1.45 1.45 95 1015.2
20260831231202 22 360 0.0 0.0 0.00 1.47 1.45 95 1015.0
20260831230224 22 360 0.0 1.6 0.00 1.47 1.45 95 1015.2
20260831225203 22 359 0.0 1.6 0.00 1.47 1.45 95 1015.3
20260831224202 22 359 0.0 3.2 0.00 1.50 1.45 95 1015.4
20260831223203 22 359 3.2 6.4 0.00 1.50 1.45 95 1015.5
20260831222202 22 359 4.8 9.7 0.00 1.50 1.45 96 1015.5
20260831221203 22 359 0.0 6.4 0.00 1.52 1.45 96 1015.5
20260831220202 22 359 0.0 3.2 0.00 1.52 1.45 96 1015.7
20260831215203 22 360 0.0 9.7 0.00 1.52 1.45 95 1015.6
20260831214203 22 360 0.0 8.0 0.00 1.52 1.45 96 1015.7
20260831213248 22 359 3.2 6.4 0.00 1.52 1.45 96 1015.7
20260831212202 22 360 0.0 0.0 0.00 1.52 1.45 96 1015.6
20260831211202 22 360 0.0 0.0 0.00 1.52 1.45 95 1015.6
20260831210244 22 360 0.0 0.0 0.00 1.52 1.45 95 1015.4
20260831205203 22 360 0.0 0.0 0.00 1.52 1.45 96 1015.3
20260831204202 22 360 0.0 0.0 0.00 1.52 1.45 96 1015.4
20260831203204 22 360 0.0 0.0 0.00 1.52 1.45 96 1015.4